Regional Weather Roundup
Issued by NWS

Home | Current Version | Previous Version | Text Only | Print | Product List | Glossary On
Versions: 1 2 3 4 5 6 7 8 9 10 11 12 13 14 15 16 17 18 19 20 21 22 23 24 25 26 27 28 29 30 31 32 33 34 35 36 37 38 39 40 41 42 43 44 45 46 47 48 49 50
000
ASUS45 KBOU 240707
RWRCO

WEATHER ROUNDUP FOR COLORADO
NATIONAL WEATHER SERVICE DENVER/BOULDER CO
100 AM MDT TUE MAY 24 2016

NOTE: "FAIR" INDICATES FEW OR NO CLOUDS BELOW 12000 FEET WITH NO
SIGNIFICANT WEATHER AND/OR OBSTRUCTIONS TO VISIBILITY.

COZ001>005-013-030-031-240800-
...NORTHWEST COLORADO...

CITY           SKY/WX    TMP DP  RH WIND       PRES   REMARKS
CRAIG          FAIR      39  33  79 CALM      29.95S
HAYDEN         FAIR      43  28  56 SE6       29.95F
MEEKER         FAIR      41  33  73 NE5       29.93S
MOUNT WERNER   NOT AVBL
STEAMBOAT SPGS FAIR      40  29  65 CALM      29.97F
WALDEN         FAIR      34  27  75 SE6       30.05S WCI  29
$$

COZ006>008-011-240800-
...WEST CENTRAL VALLEYS...

CITY           SKY/WX    TMP DP  RH WIND       PRES   REMARKS
GRAND JUNCTION FAIR      50  27  40 E5        29.83F
MONTROSE       FAIR      50  23  34 SE9       29.92S
EAGLE          FAIR      45  27  49 CALM      29.99S
RIFLE          FAIR      46  31  55 CALM      29.90S
DELTA          FAIR      53  21  29 E9        29.88F
NUCLA          FAIR      50  21  32 SE8       29.94S
$$

COZ017>023-064>068-240800-
...SOUTHWEST COLORADO...

CITY           SKY/WX    TMP DP  RH WIND       PRES   REMARKS
DURANGO        FAIR      40  25  55 CALM      29.98R
CORTEZ         FAIR      38  25  59 E3        29.94R
PAGOSA SPRINGS FAIR      40  25  55 CALM      30.04S
TELLURIDE      FAIR      50  13  22 E3        30.09S
WOLF CREEK PAS FAIR      32  14  47 SW20G26   30.25S WCI  20
$$

COZ009-010-012-014-032>034-037-058>063-240800-
...CENTRAL COLORADO...

CITY           SKY/WX    TMP DP  RH WIND       PRES   REMARKS
ASPEN          FAIR      39  23  52 SW10      30.01F
BUENA VISTA    FAIR      39  22  50 W5        30.04F
COPPER MTN     NOT AVBL
BERTHOUD PASS  FAIR      30  21  69 SW9       30.22F WCI  22
COTTONWOOD PAS FAIR      46   9  21 W7        30.12F
GUNNISON       FAIR      37  21  52 E5        30.06S
KREMMLING      FAIR      37  28  70 CALM      30.03S
LEADVILLE      FAIR      32  16  51 SE3       30.11F
MONARCH PASS   FAIR      34  14  44 W17       30.32S WCI  23
SALIDA         FAIR      46  21  38 W8        30.09S
SUNLIGHT       FAIR      37  18  44 CALM      30.16F
WILKERSON PASS FAIR      36  19  51 S5        30.21F
$$

COZ069>075-240800-
...SAN LUIS VALLEY/SANGRE DE CRISTO MOUNTAINS...

CITY           SKY/WX    TMP DP  RH WIND       PRES   REMARKS
ALAMOSA        FAIR      40  26  57 SW9       30.02R
LA VETA PASS   FAIR      43  14  31 S6        30.14F
SAGUACHE       FAIR      45  21  39 N12       30.03F
$$

COZ035-036-038>040-240800-
...NORTHERN COLORADO FRONT RANGE...

CITY           SKY/WX    TMP DP  RH WIND       PRES   REMARKS
DENVER INTL AP FAIR      49  41  74 S7        29.95S
DMNS CITY PARK   N/A     49  45  84 SE6       29.94S
AURORA         PTCLDY    47  43  84 S6        29.96F
FRONT RANGE AP NOT AVBL
ERIE MUNI ARPT FAIR      46  42  88 CALM      29.94F
BOULDER MUN AP FAIR      52  43  71 W3        29.94F
CENTENNIAL     FAIR      48  41  76 SE3       29.96F
BROOMFIELD     FAIR      52  43  71 NW6       29.96F
FORT COLLINS   FAIR      50  41  71 NE7       29.96S
LONGMONT       FAIR      49  43  80 W5        29.96F
$$

COZ041-046-047-076>085-087-088-240800-
...PIKES PEAK/PALMER DIVIDE AND SOUTHERN FOOTHILLS...

CITY           SKY/WX    TMP DP  RH WIND       PRES   REMARKS
COLO. SPRINGS  FAIR      52  39  61 N10       29.96F
A. F. ACADEMY  MOCLDY    46  39  76 N9        29.98F
SCHRIEVER AFB  NOT AVBL
ELLICOTT       FAIR     N/A N/A N/A N8        29.94S
FALCON         FAIR      50  34  53 N8        30.00S
FORT CARSON    FAIR      53  42  65 N14       29.92F
LIMON          FAIR      47  42  83 NE5       29.94F
MONUMENT HILL  FAIR      41  37  87 W5        30.02F
TRINIDAD       FAIR      53  28  38 W8        29.90S
$$

COZ042>045-048>051-090-091-240800-
...NORTHEAST COLORADO...

CITY           SKY/WX    TMP DP  RH WIND       PRES   REMARKS
GREELEY ARPT   MOCLDY    48  41  76 NE6       29.94F
AKRON          MOCLDY    52  46  80 SE6       29.92R THUNDER
BURLINGTON     FAIR      51  43  74 NE9       29.86F
WRAY           NOT AVBL
STERLING       FAIR      46  43  87 CALM      29.89S THUNDER
HOLYOKE        TSTM      54  46  76 NE8       29.88R
FORT MORGAN    FAIR      46  40  81 CALM      29.92F
$$

COZ086-089-092>099-240800-
...SOUTHEAST COLORADO...

CITY           SKY/WX    TMP DP  RH WIND       PRES   REMARKS
PUEBLO         FAIR      61  40  45 N18       29.86S
LA JUNTA       FAIR      60  52  74 E6        29.81S
LAMAR          FAIR      57  54  89 E7        29.76F
SPRINGFIELD      N/A     53  42  66 S9        29.83R
$$



USA.gov is the U.S. government's official web portal to all federal, state and local government web resources and services.